Tracking 17143 objects as of 25-May-2015
HD Live streaming from Space Station

GLOBALSTAR M082

Track GLOBALSTAR M082 now!
10-day predictions
GLOBALSTAR M082 is classified as:


NORAD ID: 38042
Int'l Code: 2011-080C
Perigee: 1,420.0 km
Apogee: 1,421.5 km
Inclination: 52.0 °
Period: 114.1 minutes
Semi major axis: 7791 km
RCS: 4.8173 m2 (large)
Launch date: December 28, 2011
Source: Globalstar (GLOB)
Your satellite tracking list
Your tracking list is empty





NASA's NSSDC Master Catalog

Two Line Element Set (TLE):
1 38042U 11080C   15144.78477296 -.00000098  00000-0  30402-4 0  9993
2 38042 052.0089 036.3084 0000981 089.1987 313.3016 12.62265784159383

Source of the keplerian elements: AFSPC

N2YO: 359